Погода в Весляне

Хотите узнать прогноз погоды в Весляне? Тогда Вам сюда: Погода в Весляне

Поиск расширенной информации на нашем сайте:

Полезная информация:

Новости сайта



02.01.2020
Опубликован Долгосрочный прогноз погоды по городам России и ближнего зарубежья на январь 2020 года.
Карты: Прогноз на январь и февраль 2020 года, Сравнение прогнозируемой аномалии приземной температуры воздуха на январь 2020 года по разным моделям.




Погода в Весляне - сегодня

Время (UTC), дата Ветер
(°,м/с) 
Видим.   Явления Облачность Т
(°С)
Тd
(°С)
f(%) Тe
(°С)
Pmin
(гПа)
dP
(гПа)
Po
(мм)
O2
(г/м3)
Тmin Tmax R s Состояние
почвы
03 28.11.20 130 (ЮВ) 8000 м  слаб. снег  10/10 270 м 
[Frnb|Ns]
-9.8 -11 91 -10  1037.6  1.6  768  322  -15.2    0.2  равномерный
сухой снег
100% 
06 28.11.20 тихо ()   20000 м  {снег}  3/0 средняя 
[Ac lent]
-12 -13.3 90 -12  1039  1.3  769  325  -12.4         
09 28.11.20 тихо ()   20000 м    ясно 
-12.1 -13.4 90 -12  1040.7  1.6  770  326           
12 28.11.20 тихо ()   30000 м    3/0 верхняя 
[Cs]
-15.4 -16.7 90 -15  1042.4  1.5  771  331           
15 28.11.20 тихо ()   30000 м    ясно 
-18.6 -20.5 85 -19  1043.7  1.1  772  335    -9.8  0.0     
18 28.11.20 тихо ()   30000 м    ясно 
-20.1 -22.7 80 -20  1045.3  1.4  773  338           
03 29.11.20 120 (ЮВ) 19000 м  слаб. снег  9/0 средняя, верхняя 
[As op|Cs]
-20.2 -22.1 85 -20  1047.6  0.2  775  339  -22.9    0.0  равномерный
сухой снег
100% 
06 29.11.20 130 (ЮВ) 5000 м  слаб. снег  10/0 средняя 
[As op]
-18.4 -20.3 85 -19  1047.8  0.3  775  336           
09 29.11.20 160 (Ю) 20000 м  {снег}  9/0 средняя, верхняя 
[As trans|Cs]
-16.6 -18.5 85 -17  1048.1  0.4  775  334           
12 29.11.20 тихо ()   20000 м  {снег}  1/0 верхняя 
[Ci fib]
-17.6 -19.5 85 -18  1047.9  -0.3  775  335           
15 29.11.20 тихо ()   50000 м    ясно 
-21 -22.8 85 -21  1047.8  -0.3  775  340    -16.2  0.0     
18 29.11.20 170 (Ю) 18000 м  слаб. снег  9/0 средняя, верхняя 
[As trans|Cs]
-19.5 -21.4 85 -20  1046.7  -0.9  774  338           
03 30.11.20 180 (Ю) 30000 м    10/10 360 м 
[Ns]
-9.2 -9.9 95 -9  1044.1  -0.8  773  323  -22    0.0  равномерный
сухой снег
100% 
06 30.11.20 180 (Ю) 27000 м  {снег}  10/10 300 м 
[Ns]
-7.7 -8.7 93 -7  1043.5  -0.4  772  321           
09 30.11.20 180 (Ю) 30000 м    10/10 300 м 
[Ns]
-5.8 -6.9 92 -5  1042.8  -0.7  772  319           
12 30.11.20 180 (Ю) 28000 м    10/10 330 м 
[Ns]
-5.1 -5.8 95 -5  1042.1  -0.7  771  317           
15 30.11.20 180 (Ю) 10 км  слаб. снег  10/10 300 м 
[Frnb|Ns]
-3.7 -4.2 96 -5  1040.6  -1.3  770  315    -3.7  0.0     
18 30.11.20 180 (Ю) 25000 м  {снег}  10/10 300 м 
[Frnb|Ns]
-3.1 -3.8 95 -4  1039.6  -1  770  314           
03 01.12.20 200 (Ю) 4{11}  50000 м    10/10 450 м 
[Sc]
-4 -6.2 85 -7  1035.6  -1.1  767  314  -4.3    0.0  равномерный
сухой снег
100% 
06 01.12.20 190 (Ю) 4{11}  50000 м    10/8 500 м средняя 
[Sc|Ac As]
-4.3 -7.4 79 -7  1035  -0.6  766  314  -4.6         
09 01.12.20 200 (Ю) 3{11}  20000 м    8/3 600 м кучево-дожд., средняя 
[Cb cap|Ac trans]
-5.2 -8.5 78 -8  1034.7  -0.3  766  316           
12 01.12.20 190 (Ю) 20000 м    4/0 средняя 
[Ac lent]
-5.8 -9.2 77 -8  1033.8  -0.9  765  316           
15 01.12.20 200 (Ю) 45000 м    8/0 средняя, верхняя 
[Ac lent|Ci]
-5.8 -3.2 100 -9  1033  -0.8  765  315    -4       
18 01.12.20 200 (Ю) 35000 м    9/0 средняя 
[As trans]
-5.2 -8.9 75 -8  1032.4  -0.6  764  315           
03 02.12.20 210 (ЮЗ) 30000 м    10/10 480 м 
[Sc]
-5.4 -7.9 83 -9  1032.6  -0.3  764  315  -5.8      равномерный
сухой снег
100% 
Время (UTC), дата Ветер
(°,м/с) 
Видим.   Явления Облачность Т
(°С)
Тd
(°С)
f(%) Тe
(°С)
Pmin
(гПа)
dP
(гПа)
Po
(мм)
O2
(г/м3)
Тmin Tmax R s Состояние
почвы

Для получения пояснительной информации подведите курсор к названию столбца.

ПОГОДА в Весляне - архив

Всё, что Вы хотите узнать о погоде в Весляне - удобно и подробно!

Выберите нужную дату (начиная с 1 января 2019* года) и нажмите кнопку "Найти".
Будут отображены архивные сводки погоды по пункту Весляна, начиная с указанной даты.


Отображать данные в формате CSV (для использования в таблицах Excel)


Внимание! Наш архив погоды предназначен исключительно для личного некоммерческого использования в познавательных целях. Если Вам необходимы официальные справки о состоянии погоды (для производственных, юридических, коммерческих и т.п. целей), обращайтесь в органы Росгидромета.

*Примечание: данная дата относится к архиву по метеостанциям СССР (Россия, СНГ, Балтия).
Архив по метеостанциям Зарубежной Европы и Азии (кроме Китая) хранится 10 дней, по другим регионам земного шара (Китай, Африка, Америка, Австралия, Океания) - 1 день.

Весляна - район местоположения метеостанции


Название, широта, долгота, высота метеостанции:
Весляна 63°ш. 50.9°д. 103 м над ур. моря [Российская Федерация]

Дополнительная информация

В oтличие oт бoльшинства пoгoдных сайтoв мы публикуем пoдрoбную метеoинфoрмацию в детальнoм прoфессиoнальнoм фoрмате.

Характеристики температуры и влажнoсти вoздуха измеряются на высoте 2 м в тени вдали oт зданий и деревьев.
Скoрoсть ветра измеряется на высoте 10 м (на урoвне рoста челoвека скoрoсть ветра ниже в 1.5-2 раза). Если метеoстанция нахoдится в гoрoде или в лесу, тo скoрoсть ветра занижена на 2-4 м/с пo сравнению с oткрытым местoм. Скoрoсть ветра над акватoриями крупных рек и oзёр, а также на вершинах хoлмoв на 2-5 м/с выше, чем в oбычных услoвиях.
Атмoсфернoе давление в разных тoчках местнoсти мoжет значительнo oтличаться oт давления на метеoстанции, в зависимoсти oт услoвий рельефа (при пoдъёме на 10 м давление пoнижается примернo на 1 мм рт.ст.).